Weather History for KSBS - August, 2013

Change the Weather History Date:

Friday, August 2, 2013

  Actual Average Record
Temperature  
Mean Temperature 65 °F -  
Max Temperature 84 °F 81 °F 95 °F (1934)
Min Temperature 46 °F 43 °F 29 °F (1915)
Growing Degree Days 15 (Base 50)    
Moisture  
Dew Point 39 °F    
Average Humidity 48    
Maximum Humidity 95    
Minimum Humidity 12    
Precipitation  
Precipitation 0.00 in - - ()
Sea Level Pressure  
Sea Level Pressure 30.22 in    
Wind  
Wind Speed 2 mph (SSW)    
Max Wind Speed 14 mph    
Max Gust Speed 20 mph    
Visibility 10 miles    
Events      
Averages and records for this station are not official NWS values.
T = Trace of Precipitation, MM = Missing Value Source: NWS Daily Summary

Daily Weather History Graph

Daily Weather History Graph

Search for Another Location

Airport or City:

Trip Planner

Search our weather history database for the weather conditions in past years. The results will help you decide how hot, cold, wet, or windy it might be!

Date:

Astronomy

Aug. 02, 2013 Rise Set
Actual Time 6:05 AM MDT 8:20 PM MDT
Civil Twilight 5:35 AM MDT 8:51 PM MDT
Nautical Twilight 4:57 AM MDT 9:28 PM MDT
Astronomical Twilight 4:16 AM MDT 10:09 PM MDT
Moon 2:28 AM MDT (8/2) 5:21 PM MDT (8/2)
Length of Visible Light 15h 15m
Length of Day
14h 15m
Waning Crescent, 15% of the Moon is Illuminated
Aug 2
Waning Crescent
Aug 6
New
Aug 14
First Quarter
Aug 20
Full
Aug 28
Last Quarter

Hourly Weather History & Observations

Time (MDT) Temp. Dew Point Humidity Pressure Visibility Wind Dir Wind Speed Gust Speed Precip Events Conditions
12:15 AM 53.6 °F 46.9 °F 78% 30.21 in 10.0 mi Calm Calm - N/A   Clear
12:35 AM 53.6 °F 46.4 °F 77% 30.21 in 10.0 mi SE 3.5 mph - N/A   Clear
12:55 AM 52.2 °F 46.6 °F 81% 30.21 in 10.0 mi Calm Calm - N/A   Clear
1:15 AM 52.9 °F 45.9 °F 77% 30.22 in 10.0 mi Calm Calm - N/A   Clear
1:35 AM 51.4 °F 45.7 °F 81% 30.21 in 10.0 mi Calm Calm - N/A   Clear
1:55 AM 52.3 °F 45.0 °F 76% 30.22 in 10.0 mi Calm Calm - N/A   Clear
2:15 AM 51.8 °F 45.0 °F 77% 30.21 in 10.0 mi Calm Calm - N/A   Clear
2:35 AM 50.5 °F 47.3 °F 89% 30.21 in 10.0 mi Calm Calm - N/A   Clear
2:55 AM 50.9 °F 46.6 °F 85% 30.21 in 10.0 mi Calm Calm - N/A   Clear
3:15 AM 49.5 °F 46.8 °F 90% 30.21 in 10.0 mi Calm Calm - N/A   Clear
3:35 AM 49.1 °F 46.6 °F 91% 30.22 in 10.0 mi Calm Calm - N/A   Clear
3:55 AM 48.9 °F 46.0 °F 90% 30.23 in 10.0 mi Calm Calm - N/A   Clear
4:15 AM 48.4 °F 46.4 °F 93% 30.23 in 10.0 mi East 5.8 mph - N/A   Clear
4:35 AM 48.4 °F 45.7 °F 90% 30.23 in 10.0 mi Calm Calm - N/A   Clear
4:55 AM 48.2 °F 45.9 °F 92% 30.22 in 10.0 mi Calm Calm - N/A   Clear
5:15 AM 48.4 °F 45.7 °F 90% 30.23 in 10.0 mi Calm Calm - N/A   Clear
5:35 AM 48.2 °F 45.5 °F 90% 30.23 in 10.0 mi Calm Calm - N/A   Clear
5:55 AM 46.4 °F 44.8 °F 94% 30.24 in 10.0 mi Calm Calm - N/A   Clear
6:15 AM 46.8 °F 45.3 °F 95% 30.24 in 10.0 mi East 3.5 mph - N/A   Clear
6:35 AM 48.4 °F 45.9 °F 91% 30.25 in 10.0 mi Calm Calm - N/A   Clear
6:55 AM 46.4 °F 44.8 °F 94% 30.25 in 10.0 mi Calm Calm - N/A   Clear
7:15 AM 47.1 °F 45.5 °F 94% 30.26 in 10.0 mi Calm Calm - N/A   Clear
7:35 AM 48.2 °F 46.2 °F 93% 30.26 in 10.0 mi Calm Calm - N/A   Mostly Cloudy
7:55 AM 50.5 °F 46.9 °F 87% 30.26 in 10.0 mi Calm Calm - N/A   Scattered Clouds
8:15 AM 53.4 °F 45.9 °F 76% 30.26 in 10.0 mi Calm Calm - N/A   Clear
8:35 AM 56.3 °F 47.3 °F 72% 30.26 in 10.0 mi Calm Calm - N/A   Clear
8:55 AM 57.6 °F 46.9 °F 68% 30.26 in 10.0 mi Calm Calm - N/A   Clear
9:15 AM 60.3 °F 46.8 °F 61% 30.26 in 10.0 mi Calm Calm - N/A   Clear
9:35 AM 62.8 °F 46.0 °F 54% 30.27 in 10.0 mi Calm Calm - N/A   Clear
9:55 AM 64.8 °F 45.9 °F 50% 30.27 in 10.0 mi Calm Calm - N/A   Clear
10:15 AM 66.4 °F 45.3 °F 47% 30.26 in 10.0 mi Calm Calm - N/A   Clear
10:35 AM 70.3 °F 47.7 °F 44% 30.26 in 10.0 mi Calm Calm - N/A   Clear
10:55 AM 72.0 °F 42.1 °F 34% 30.26 in 10.0 mi Calm Calm - N/A   Clear
11:15 AM 72.9 °F 42.6 °F 34% 30.26 in 10.0 mi Calm Calm - N/A   Clear
11:35 AM 73.8 °F 42.6 °F 33% 30.25 in 10.0 mi SSW 6.9 mph - N/A   Clear
11:55 AM 75.9 °F 40.3 °F 28% 30.24 in 10.0 mi SW 9.2 mph - N/A   Clear
12:15 PM 77.4 °F 38.3 °F 24% 30.24 in 10.0 mi SW 10.4 mph 16.1 mph N/A   Clear
12:35 PM 77.7 °F 38.1 °F 24% 30.24 in 10.0 mi SW 9.2 mph 18.4 mph N/A   Clear
12:55 PM 78.3 °F 36.0 °F 22% 30.23 in 10.0 mi SW 6.9 mph 17.3 mph N/A   Clear
1:15 PM 79.9 °F 34.2 °F 19% 30.22 in 10.0 mi WSW 10.4 mph 19.6 mph N/A   Clear
1:35 PM 81.7 °F 31.8 °F 16% 30.22 in 10.0 mi SSW 12.7 mph 18.4 mph N/A   Clear
1:55 PM 81.5 °F 30.6 °F 16% 30.22 in 10.0 mi West 5.8 mph - N/A   Clear
2:15 PM 82.4 °F 29.8 °F 15% 30.21 in 10.0 mi West 4.6 mph 19.6 mph N/A   Clear
2:35 PM 82.9 °F 28.8 °F 14% 30.20 in 10.0 mi WSW 8.1 mph 18.4 mph N/A   Scattered Clouds
2:55 PM 83.5 °F 28.6 °F 14% 30.20 in 10.0 mi WSW 5.8 mph 17.3 mph N/A   Clear
3:15 PM 81.7 °F 31.6 °F 16% 30.19 in 10.0 mi West 8.1 mph - N/A   Scattered Clouds
3:35 PM 80.6 °F 30.9 °F 16% 30.18 in 10.0 mi South 4.6 mph - N/A   Scattered Clouds
3:55 PM 81.1 °F 32.0 °F 17% 30.18 in 10.0 mi SW 3.5 mph - N/A   Mostly Cloudy
4:15 PM 83.3 °F 32.2 °F 16% 30.18 in 10.0 mi SW 13.8 mph 17.3 mph N/A   Scattered Clouds
4:35 PM 84.0 °F 31.1 °F 15% 30.18 in 10.0 mi Calm Calm - N/A   Scattered Clouds
4:54 PM 84.0 °F 31.6 °F 15% 30.17 in 10.0 mi SSW 6.9 mph - N/A   Scattered Clouds
5:14 PM 83.5 °F 29.7 °F 14% 30.17 in 10.0 mi SE 3.5 mph - N/A   Scattered Clouds
5:35 PM 83.3 °F 27.9 °F 13% 30.16 in 10.0 mi Calm Calm - N/A   Scattered Clouds
5:54 PM 82.6 °F 27.7 °F 14% 30.16 in 10.0 mi Calm Calm - N/A   Mostly Cloudy
6:15 PM 83.5 °F 28.4 °F 14% 30.16 in 10.0 mi SW 6.9 mph - N/A   Scattered Clouds
6:35 PM 84.4 °F 25.3 °F 12% 30.16 in 10.0 mi WSW 6.9 mph - N/A   Scattered Clouds
6:55 PM 83.5 °F 25.0 °F 12% 30.16 in 10.0 mi WSW 9.2 mph - N/A   Scattered Clouds
7:14 PM 81.7 °F 26.2 °F 13% 30.17 in 10.0 mi WSW 6.9 mph - N/A   Clear
7:30 PM 77.9 °F 28.4 °F 16% 30.17 in 10.0 mi SW 3.5 mph - N/A   Clear
7:55 PM 75.2 °F 30.6 °F 19% 30.18 in 10.0 mi Calm Calm - N/A   Clear
8:15 PM 72.9 °F 34.0 °F 24% 30.18 in 10.0 mi Calm Calm - N/A   Clear
8:35 PM 72.5 °F 33.6 °F 24% 30.19 in 10.0 mi Calm Calm - N/A   Clear
8:55 PM 73.2 °F 33.8 °F 24% 30.20 in 10.0 mi Calm Calm - N/A   Clear
9:15 PM 70.3 °F 35.8 °F 28% 30.20 in 10.0 mi Calm Calm - N/A   Clear
9:35 PM 67.1 °F 37.8 °F 34% 30.20 in 10.0 mi East 6.9 mph - N/A   Clear
9:55 PM 66.2 °F 38.1 °F 36% 30.21 in 10.0 mi ESE 8.1 mph - N/A   Clear
10:15 PM 64.6 °F 39.7 °F 40% 30.21 in 10.0 mi SE 4.6 mph - N/A   Scattered Clouds
10:35 PM 63.3 °F 40.3 °F 43% 30.22 in 10.0 mi ESE 5.8 mph - N/A   Scattered Clouds
10:55 PM 64.0 °F 39.2 °F 40% 30.22 in 10.0 mi Calm Calm - N/A   Clear
11:15 PM 65.8 °F 37.6 °F 35% 30.22 in 10.0 mi Calm Calm - N/A   Clear
11:35 PM 63.3 °F 38.8 °F 40% 30.22 in 10.0 mi Calm Calm - N/A   Clear
11:55 PM 62.4 °F 39.2 °F 42% 30.23 in 10.0 mi Calm Calm - N/A   Clear